Indianapolis, IN

9:24 PM EDT on July 22, 2019 (GMT -0400)
Indianapolis International

Weather History for KIND - May, 2019

Change the Weather History Date:

Wednesday, May 29, 2019

  Actual Average Record
Temperature  
Mean Temperature 73 °F 67 °F  
Max Temperature 80 °F 77 °F 93 °F (1895)
Min Temperature 65 °F 57 °F 36 °F (1965)
Degree Days  
Heating Degree Days 0 2  
Month to date heating degree days 125 137  
Since 1 July heating degree days 5376 5359  
Cooling Degree Days 8 4  
Month to date cooling degree days 99 61  
Year to date cooling degree days 100 76  
Growing Degree Days 22 (Base 50)    
Moisture  
Dew Point 67 °F    
Average Humidity 84    
Maximum Humidity 97    
Minimum Humidity 71    
Precipitation  
Precipitation 0.06 in 0.16 in 2.19 in (1880)
Month to date precipitation 3.91 4.74  
Year to date precipitation 21.39 17.09  
Snow  
Snow 0.00 in 0.00 in 0.00 in ()
Month to date snowfall 0.0 0.0  
Since 1 July snowfall 19.4 25.9  
Snow Depth 0.00 in    
Sea Level Pressure  
Sea Level Pressure 29.75 in    
Wind  
Wind Speed 7 mph (SW)    
Max Wind Speed 20 mph    
Max Gust Speed 26 mph    
Visibility 10 miles    
Events Rain    
T = Trace of Precipitation, MM = Missing Value Source: NWS Daily Summary

Daily Weather History Graph

Daily Weather History Graph

Search for Another Location

Airport or City:

Astronomy

May. 29, 2019 Rise Set
Actual Time 6:20 AM EDT 9:04 PM EDT
Civil Twilight 5:49 AM EDT 9:36 PM EDT
Nautical Twilight 5:09 AM EDT 10:16 PM EDT
Astronomical Twilight 4:24 AM EDT 11:01 PM EDT
Moon 3:58 AM EDT (5/29) 4:13 PM EDT (5/29)
Length of Visible Light 15h 47m
Length of Day
14h 44m
Waning Crescent, 23% of the Moon is Illuminated
May 29
Waning Crescent
Jun 3
New
Jun 10
First Quarter
Jun 17
Full
Jun 25
Last Quarter

Hourly Weather History & Observations

Time (EDT) Temp. Dew Point Humidity Pressure Visibility Wind Dir Wind Speed Gust Speed Precip Events Conditions
12:54 AM 75.0 °F 66.0 °F 73% 29.72 in 10.0 mi South 8.1 mph - N/A   Mostly Cloudy
1:54 AM 73.9 °F 64.9 °F 73% 29.73 in 10.0 mi SW 6.9 mph - N/A   Mostly Cloudy
2:54 AM 71.1 °F 64.9 °F 81% 29.72 in 10.0 mi SSW 6.9 mph - N/A   Mostly Cloudy
3:54 AM 71.1 °F 66.0 °F 84% 29.71 in 10.0 mi West 3.5 mph - N/A   Mostly Cloudy
4:54 AM 68.0 °F 64.9 °F 90% 29.71 in 10.0 mi NNW 9.2 mph - N/A   Mostly Cloudy
5:25 AM 66.0 °F 64.0 °F 93% 29.76 in 10.0 mi NW 9.2 mph - N/A   Mostly Cloudy
5:36 AM 66.0 °F 64.0 °F 93% 29.76 in 10.0 mi NW 8.1 mph - N/A   Mostly Cloudy
5:54 AM 66.0 °F 63.0 °F 90% 29.74 in 10.0 mi NW 5.8 mph - N/A   Overcast
6:07 AM 64.9 °F 63.0 °F 93% 29.74 in 10.0 mi NNW 3.5 mph - N/A   Mostly Cloudy
6:54 AM 64.9 °F 63.0 °F 93% 29.76 in 9.0 mi West 6.9 mph - 0.00 in Rain Light Rain
7:54 AM 66.0 °F 63.0 °F 90% 29.72 in 10.0 mi ESE 9.2 mph - 0.00 in Rain Light Rain
8:54 AM 66.0 °F 64.0 °F 93% 29.77 in 10.0 mi SSW 5.8 mph - 0.00 in   Overcast
9:54 AM 66.9 °F 64.0 °F 90% 29.74 in 10.0 mi SSW 6.9 mph - N/A   Overcast
10:54 AM 70.0 °F 64.9 °F 84% 29.71 in 10.0 mi South 10.4 mph - N/A   Mostly Cloudy
11:54 AM 72.0 °F 66.9 °F 84% 29.75 in 10.0 mi SSW 16.1 mph 26.5 mph N/A   Overcast
12:54 PM 71.1 °F 68.0 °F 90% 29.76 in 10.0 mi SW 11.5 mph 25.3 mph 0.00 in   Overcast
1:54 PM 75.0 °F 68.0 °F 79% 29.76 in 10.0 mi WSW 11.5 mph - N/A   Mostly Cloudy
2:54 PM 75.9 °F 68.0 °F 76% 29.75 in 10.0 mi SSW 9.2 mph - N/A   Mostly Cloudy
3:32 PM 79.0 °F 69.1 °F 72% 29.77 in 10.0 mi West 10.4 mph - N/A   Mostly Cloudy
3:54 PM 79.0 °F 68.0 °F 69% 29.75 in 10.0 mi WSW 9.2 mph - N/A   Mostly Cloudy
4:48 PM 75.2 °F 69.8 °F 83% 29.77 in 4.0 mi NNW 9.2 mph - 0.02 in Rain Rain
4:54 PM 75.0 °F 69.1 °F 82% 29.75 in 6.0 mi North 10.4 mph - 0.02 in Rain Rain
5:54 PM 73.9 °F 70.0 °F 87% 29.76 in 10.0 mi Calm Calm - 0.04 in   Mostly Cloudy
6:54 PM 73.0 °F 71.1 °F 93% 29.77 in 8.0 mi SSE 3.5 mph - N/A   Overcast
7:30 PM 73.0 °F 71.1 °F 93% 29.78 in 10.0 mi SE 4.6 mph - N/A   Overcast
7:54 PM 73.0 °F 70.0 °F 90% 29.75 in 10.0 mi ESE 6.9 mph - N/A   Overcast
8:54 PM 72.0 °F 70.0 °F 93% 29.76 in 8.0 mi East 5.8 mph - N/A   Overcast
9:46 PM 72.0 °F 70.0 °F 93% 29.81 in 9.0 mi SSE 5.8 mph - 0.00 in Rain Light Rain
9:54 PM 72.0 °F 70.0 °F 93% 29.79 in 9.0 mi ESE 3.5 mph - 0.00 in   Overcast
10:18 PM 72.0 °F 70.0 °F 93% 29.81 in 9.0 mi SSE 5.8 mph - N/A   Overcast
10:54 PM 71.1 °F 69.1 °F 93% 29.80 in 10.0 mi South 4.6 mph - 0.00 in Rain Light Rain
11:54 PM 70.0 °F 68.0 °F 93% 29.82 in 10.0 mi SSW 8.1 mph - 0.00 in Rain Light Rain